"Timestamp","TZ","WindDir_Mean (deg)","WindSpd_Mean (km/h)","WindSpd_Min (km/h)","WindSpd_Max (km/h)","Temp_Mean (deg)","RH_Mean (%)","MSLP_Mean (hPa)","Rain_Acc (mm)","Rain_Intensity (mm/h)","Hail_Acc (hits/cm2)","Hail_Intensity (hits/cm2hr)","Solar_Mean (W/m2)"
2022/04/23 00:00:00.007,n,155,6.48,5.76,6.84,18.4,84.6,1025.12,0,0,0,0,0.026093
2022/04/23 00:01:00.000,n,172,7.2,6.48,8.28,18.4,84.6,1025.12,0,0,0,0,0.028687
2022/04/23 00:02:00.001,n,194,8.28,6.12,9.36,18.4,84.6,1025.12,0,0,0,0,0.029564
2022/04/23 00:03:00.000,n,146,11.88,9.72,14.04,18.4,84.6,1025.12,0,0,0,0,0.028687
2022/04/23 00:04:00.000,n,188,2.88,2.16,4.68,18.4,84.6,1025.12,0,0,0,0,0.027809
2022/04/23 00:05:00.000,n,181,11.16,10.440002,12.6,18.4,84.6,1025.02,0,0,0,0,0.025215
2022/04/23 00:06:00.006,n,177,16.919998,14.76,19.08,18.4,84.4,1025.02,0,0,0,0,0.025215
2022/04/23 00:07:00.003,n,193,12.96,10.8,14.04,18.3,84.4,1025.02,0,0,0,0,0.025215
2022/04/23 00:08:00.002,n,183,12.96,10.8,14.04,18.3,84.5,1025.02,0,0,0,0,0.026093
2022/04/23 00:09:00.015,n,198,12.24,10.440002,12.96,18.3,84.5,1025.02,0,0,0,0,0.02697
2022/04/23 00:10:00.000,n,200,7.2,6.48,7.56,18.3,84.5,1025.02,0,0,0,0,0.025215
2022/04/23 00:11:00.000,n,113,0.72,0.36,1.08,18.3,84.8,1025.02,0,0,0,0,0.027809
2022/04/23 00:12:00.000,n,223,5.04,4.68,6.12,18.4,84.9,1025.02,0,0,0,0,0.02697
2022/04/23 00:13:00.004,n,163,5.76,5.4,6.48,18.4,84.7,1025.02,0,0,0,0,0.026093
2022/04/23 00:14:00.002,n,166,2.52,1.44,5.76,18.4,84.8,1024.92,0,0,0,0,0.02697
2022/04/23 00:15:00.000,n,174,6.84,6.12,7.56,18.4,84.7,1024.92,0,0,0,0,0.025215
2022/04/23 00:16:00.012,n,177,5.76,5.04,6.84,18.4,84.8,1025.02,0,0,0,0,0.02346
2022/04/23 00:17:00.009,n,163,6.84,6.12,7.92,18.4,84.7,1025.02,0,0,0,0,0.02697
2022/04/23 00:18:00.007,n,198,5.04,3.96,5.76,18.3,84.7,1025.02,0,0,0,0,0.02697
2022/04/23 00:19:00.000,n,169,3.96,3.24,4.68,18.3,84.8,1025.02,0,0,0,0,0.025215
2022/04/23 00:20:00.001,n,173,0.36,0,0.72,18.3,84.9,1025.02,0,0,0,0,0.028687
2022/04/23 00:21:00.000,n,168,3.24,1.8,4.32,18.4,84.9,1025.02,0,0,0,0,0.02697
2022/04/23 00:22:00.000,n,100,2.52,0.72,3.96,18.4,84.8,1025.02,0,0,0,0,0.026093
2022/04/23 00:23:00.000,n,209,6.48,5.76,7.56,18.3,84.8,1024.92,0,0,0,0,0.028687
2022/04/23 00:24:00.007,n,177,3.6,3.24,4.32,18.3,84.7,1024.92,0,0,0,0,0.02697
2022/04/23 00:25:00.004,n,182,6.84,6.48,7.2,18.3,84.8,1024.92,0,0,0,0,0.024376
2022/04/23 00:26:00.002,n,169,6.12,4.32,7.2,18.3,84.8,1024.92,0,0,0,0,0.028687
2022/04/23 00:27:00.015,n,145,3.6,0.36,6.48,18.3,84.7,1024.82,0,0,0,0,0.02346
2022/04/23 00:28:00.000,n,173,5.04,4.32,5.4,18.3,84.8,1024.82,0,0,0,0,0.022583
2022/04/23 00:29:00.000,n,213,2.52,2.16,3.24,18.3,84.9,1024.82,0,0,0,0,0.028687
2022/04/23 00:30:00.000,n,169,3.96,3.6,4.32,18.4,84.9,1024.82,0,0,0,0,0.025215
2022/04/23 00:31:00.004,n,127,3.96,2.16,6.84,18.4,84.8,1024.82,0,0,0,0,0.02346
2022/04/23 00:32:00.001,n,273,1.8,1.44,2.52,18.3,84.8,1024.82,0,0,0,0,0.026093
2022/04/23 00:33:00.000,n,316,1.44,0.72,2.88,18.3,84.9,1024.72,0,0,0,0,0.025215
2022/04/23 00:34:00.012,n,109,0.72,0.36,1.44,18.3,84.9,1024.72,0,0,0,0,0.026093
2022/04/23 00:35:00.009,n,343,1.08,0.36,1.8,18.3,85,1024.72,0,0,0,0,0.025215
2022/04/23 00:36:00.006,n,219,1.44,0.72,1.8,18.3,85,1024.72,0,0,0,0,0.024376
2022/04/23 00:37:00.000,n,234,1.8,0.72,2.16,18.3,84.9,1024.72,0,0,0,0,0.026093
2022/04/23 00:38:00.000,n,1,2.16,0.72,2.88,18.3,85,1024.72,0,0,0,0,0.02697
2022/04/23 00:39:00.000,n,278,1.44,0.72,2.16,18.3,85,1024.72,0,0,0,0,0.025215
2022/04/23 00:40:00.000,n,252,2.16,1.44,3.24,18.3,85.2,1024.72,0,0,0,0,0.028687
2022/04/23 00:41:00.008,n,110,0.72,0.36,0.72,18.4,84.9,1024.72,0,0,0,0,0.025215
2022/04/23 00:42:00.005,n,200,3.6,3.24,3.96,18.3,84.9,1024.72,0,0,0,0,0.02697
2022/04/23 00:43:00.002,n,123,1.08,0.36,1.8,18.3,84.8,1024.72,0,0,0,0,0.026093
2022/04/23 00:44:00.000,n,172,2.88,1.8,3.24,18.3,84.8,1024.72,0,0,0,0,0.029564
2022/04/23 00:45:00.014,n,265,3.24,2.88,3.6,18.3,84.9,1024.72,0,0,0,0,0.02697
2022/04/23 00:46:00.000,n,253,2.52,2.16,3.24,18.3,84.9,1024.72,0,0,0,0,0.024376
2022/04/23 00:47:00.000,n,216,0.72,0,1.08,18.3,85.1,1024.72,0,0,0,0,0.024376
2022/04/23 00:48:00.000,n,198,2.16,1.8,2.52,18.3,85.1,1024.72,0,0,0,0,0.026093
2022/04/23 00:49:00.000,n,223,2.52,2.16,2.88,18.3,85,1024.72,0,0,0,0,0.02697
2022/04/23 00:50:00.000,n,198,2.16,0.36,4.32,18.3,85,1024.62,0,0,0,0,0.032158
2022/04/23 00:51:00.000,n,173,1.08,0.36,2.52,18.3,85.1,1024.72,0,0,0,0,0.031319
2022/04/23 00:52:00.008,n,204,1.44,0.36,2.88,18.3,85.2,1024.72,0,0,0,0,0.033035
2022/04/23 00:53:00.005,n,170,2.88,2.52,3.6,18.3,85.2,1024.72,0,0,0,0,0.033035
2022/04/23 00:54:00.002,n,210,3.24,2.52,3.96,18.3,84.9,1024.72,0,0,0,0,0.035667
2022/04/23 00:55:00.000,n,190,2.88,2.16,3.24,18.2,85.1,1024.72,0,0,0,0,0.033035
2022/04/23 00:56:00.000,n,156,5.4,4.68,6.84,18.3,85.1,1024.72,0,0,0,0,0.032158
2022/04/23 00:57:00.000,n,127,2.52,1.08,3.96,18.2,85,1024.72,0,0,0,0,0.033951
2022/04/23 00:58:00.000,n,169,6.12,4.32,7.2,18.2,85.2,1024.72,0,0,0,0,0.033951
2022/04/23 00:59:00.005,n,170,5.4,4.68,6.48,18.2,85.1,1024.72,0,0,0,0,0.029564
2022/04/23 01:00:00.002,n,170,6.12,5.04,8.28,18.2,85.1,1024.72,0,0,0,0,0.03479
2022/04/23 01:01:00.000,n,164,4.32,3.96,5.4,18.2,85.1,1024.72,0,0,0,0,0.033951
2022/04/23 01:02:00.013,n,205,5.4,5.04,6.12,18.2,85.2,1024.72,0,0,0,0,0.032158
2022/04/23 01:03:00.010,n,215,7.56,7.2,8.28,18.2,85.2,1024.62,0,0,0,0,0.029564
2022/04/23 01:04:00.000,n,212,5.04,3.6,5.4,18.2,85.2,1024.62,0,0,0,0,0.028687
2022/04/23 01:05:00.000,n,132,4.32,3.24,6.48,18.2,85.2,1024.52,0,0,0,0,0.028687
2022/04/23 01:06:00.000,n,188,7.56,7.2,8.28,18.2,85.1,1024.52,0,0,0,0,0.033035
2022/04/23 01:07:00.000,n,182,9.72,9,10.08,18.2,85.1,1024.52,0,0,0,0,0.031319
2022/04/23 01:08:00.000,n,193,9,8.64,9.72,18.2,85.1,1024.52,0,0,0,0,0.032158
2022/04/23 01:09:00.008,n,172,9.36,7.56,11.16,18.2,85,1024.42,0,0,0,0,0.032158
2022/04/23 01:10:00.006,n,165,5.76,3.96,6.84,18.3,85,1024.42,0,0,0,0,0.031319
2022/04/23 01:11:00.002,n,256,5.76,5.04,6.48,18.3,85,1024.42,0,0,0,0,0.032158
2022/04/23 01:12:00.016,n,163,9,7.92,10.8,18.3,85,1024.42,0,0,0,0,0.030441
2022/04/23 01:13:00.000,n,151,4.32,3.6,5.04,18.3,85,1024.42,0,0,0,0,0.030441
2022/04/23 01:14:00.000,n,194,6.84,6.12,8.28,18.3,85,1024.42,0,0,0,0,0.030441
2022/04/23 01:15:00.000,n,154,6.12,5.76,6.12,18.3,85,1024.42,0,0,0,0,0.030441
2022/04/23 01:16:00.004,n,175,3.96,2.52,5.4,18.3,85,1024.42,0,0,0,0,0.027809
2022/04/23 01:17:00.001,n,192,6.84,4.68,8.28,18.3,85,1024.32,0,0,0,0,0.028687
2022/04/23 01:18:00.000,n,175,6.84,6.12,8.28,18.3,85,1024.32,0,0,0,0,0.028687
2022/04/23 01:19:00.000,n,183,9.36,8.64,10.08,18.3,85,1024.32,0,0,0,0,0.031319
2022/04/23 01:20:00.009,n,173,5.4,5.04,6.84,18.3,84.9,1024.22,0,0,0,0,0.030441
2022/04/23 01:21:00.006,n,183,6.84,5.4,8.28,18.3,85,1024.22,0,0,0,0,0.031319
2022/04/23 01:22:00.000,n,186,10.08,9.72,10.440002,18.3,84.9,1024.22,0,0,0,0,0.030441
2022/04/23 01:23:00.000,n,154,6.84,6.12,6.84,18.3,84.9,1024.12,0,0,0,0,0.029564
2022/04/23 01:24:00.000,n,176,5.76,5.04,6.48,18.3,84.8,1024.12,0,0,0,0,0.030441
2022/04/23 01:25:00.000,n,188,9.72,7.56,11.16,18.3,84.9,1024.12,0,0,0,0,0.033035
2022/04/23 01:26:00.007,n,190,5.4,5.04,6.12,18.3,84.9,1024.22,0,0,0,0,0.028687
2022/04/23 01:27:00.005,n,171,10.08,7.92,11.16,18.3,84.6,1024.22,0,0,0,0,0.027809
2022/04/23 01:28:00.001,n,169,1.8,0.72,2.16,18.3,84.7,1024.22,0,0,0,0,0.028687
2022/04/23 01:29:00.001,n,167,4.68,4.32,5.4,18.3,84.7,1024.22,0,0,0,0,0.028687
2022/04/23 01:30:00.012,n,168,6.48,5.4,8.64,18.3,84.6,1024.12,0,0,0,0,0.031319
2022/04/23 01:31:00.000,n,208,3.6,3.24,4.32,18.3,84.6,1024.12,0,0,0,0,0.025215
2022/04/23 01:32:00.000,n,188,5.4,4.68,6.12,18.3,84.6,1024.12,0,0,0,0,0.029564
2022/04/23 01:33:00.003,n,219,4.32,3.96,5.04,18.3,84.6,1024.12,0,0,0,0,0.030441
2022/04/23 01:34:00.001,n,144,1.44,1.08,1.8,18.3,84.6,1024.12,0,0,0,0,0.02697
2022/04/23 01:35:00.000,n,211,0.36,0,0.72,18.3,84.5,1024.12,0,0,0,0,0.027809
2022/04/23 01:36:00.000,n,152,4.32,3.6,4.68,18.3,84.6,1024.12,0,0,0,0,0.026093
2022/04/23 01:37:00.008,n,175,7.56,6.84,8.28,18.3,84.5,1024.22,0,0,0,0,0.031319
2022/04/23 01:38:00.006,n,138,5.4,5.4,5.76,18.3,84.5,1024.22,0,0,0,0,0.025215
2022/04/23 01:39:00.003,n,183,4.32,3.96,4.68,18.3,84.5,1024.22,0,0,0,0,0.027809
2022/04/23 01:40:00.000,n,172,6.48,5.76,7.2,18.3,84.4,1024.22,0,0,0,0,0.027809
2022/04/23 01:41:00.000,n,178,3.6,3.24,3.96,18.3,84.5,1024.22,0,0,0,0,0.029564
2022/04/23 01:42:00.000,n,140,4.32,2.16,6.48,18.3,84.5,1024.22,0,0,0,0,0.029564
2022/04/23 01:43:00.000,n,167,5.04,3.96,5.4,18.3,84.6,1024.22,0,0,0,0,0.028687
2022/04/23 01:44:00.006,n,177,7.92,5.76,9,18.3,84.7,1024.22,0,0,0,0,0.032158
2022/04/23 01:45:00.004,n,186,7.92,6.84,9,18.4,84.7,1024.22,0,0,0,0,0.030441
2022/04/23 01:46:00.000,n,194,7.2,6.84,7.92,18.4,84.7,1024.22,0,0,0,0,0.029564
2022/04/23 01:47:00.014,n,175,5.04,4.68,5.76,18.4,84.7,1024.22,0,0,0,0,0.026093
2022/04/23 01:48:00.012,n,130,6.48,2.88,8.64,18.4,84.6,1024.22,0,0,0,0,0.027809
2022/04/23 01:49:00.000,n,155,5.76,4.32,6.84,18.4,84.6,1024.22,0,0,0,0,0.030441
2022/04/23 01:50:00.000,n,153,4.32,3.6,5.04,18.4,84.6,1024.22,0,0,0,0,0.031319
2022/04/23 01:51:00.003,n,174,8.64,7.92,9,18.4,84.6,1024.22,0,0,0,0,0.029564
2022/04/23 01:52:00.000,n,166,3.96,3.6,5.04,18.4,84.5,1024.22,0,0,0,0,0.031319
2022/04/23 01:53:00.000,n,188,4.68,3.24,6.12,18.4,84.3,1024.22,0,0,0,0,0.030441
2022/04/23 01:54:00.010,n,110,3.24,2.88,4.68,18.4,84.4,1024.22,0,0,0,0,0.033035
2022/04/23 01:55:00.008,n,211,3.6,3.24,3.96,18.4,84.4,1024.22,0,0,0,0,0.032158
2022/04/23 01:56:00.005,n,167,9.72,9.36,10.8,18.4,84.1,1024.22,0,0,0,0,0.033035
2022/04/23 01:57:00.002,n,130,6.12,5.4,7.2,18.4,84.2,1024.22,0,0,0,0,0.032158
2022/04/23 01:58:00.000,n,172,10.08,9,11.16,18.3,84,1024.12,0,0,0,0,0.032158
2022/04/23 01:59:00.000,n,124,4.68,3.6,5.76,18.3,84,1024.12,0,0,0,0,0.033951
2022/04/23 02:00:00.000,n,110,6.48,4.32,7.56,18.3,83.9,1024.12,0,0,0,0,0.033035
2022/04/23 02:01:00.006,n,91,11.88,9.72,12.96,18.3,83.8,1024.12,0,0.2,0,0,0.033035
2022/04/23 02:02:00.000,n,143,15.84,14.4,19.08,18.3,83.8,1024.02,0.01,0.3,0,0,0.033035
2022/04/23 02:03:00.001,n,96,1.8,0.36,3.6,18.2,83.7,1024.02,0.01,0,0,0,0.033951
2022/04/23 02:04:00.007,n,128,2.52,0,5.04,18.3,83.9,1024.02,0.01,0,0,0,0.035667
2022/04/23 02:05:00.012,n,166,7.2,6.48,7.92,18.3,83.8,1024.02,0.01,0,0,0,0.033035
2022/04/23 02:06:00.000,n,172,4.32,3.6,4.68,18.2,83.7,1024.02,0.01,0,0,0,0.029564
2022/04/23 02:07:00.000,n,163,10.08,9.36,11.16,18.2,83.9,1023.92,0.01,0,0,0,0.032158
2022/04/23 02:08:00.000,n,189,3.96,3.24,5.76,18.3,84.1,1024.02,0.01,0,0,0,0.030441
2022/04/23 02:09:00.000,n,160,4.32,3.6,5.4,18.3,84,1023.92,0.01,0,0,0,0.029564
2022/04/23 02:10:00.006,n,168,6.84,5.04,7.92,18.2,83.9,1023.92,0.01,0,0,0,0.030441
2022/04/23 02:11:00.000,n,164,1.8,1.44,2.16,18.2,84,1023.92,0.01,0,0,0,0.030441
2022/04/23 02:12:00.001,n,198,1.44,0.36,2.16,18.2,84.2,1023.92,0.01,0,0,0,0.030441
2022/04/23 02:13:00.006,n,205,5.4,4.68,6.48,18.2,84.2,1023.82,0.01,0,0,0,0.028687
2022/04/23 02:14:00.013,n,188,9.72,9.36,10.08,18.2,84.2,1023.82,0.01,0,0,0,0.032158
2022/04/23 02:15:00.001,n,193,8.28,7.92,8.64,18.2,84.3,1023.82,0.01,0,0,0,0.030441
2022/04/23 02:16:00.000,n,182,9,8.28,9.36,18.2,84.2,1023.82,0.01,0,0,0,0.030441
2022/04/23 02:17:00.000,n,185,8.64,7.56,9.72,18.2,84.3,1023.82,0.01,0,0,0,0.029564
2022/04/23 02:18:00.000,n,201,7.2,6.84,7.92,18.2,84.2,1023.82,0.01,0,0,0,0.029564
2022/04/23 02:19:00.005,n,192,3.6,2.88,3.96,18.2,84.4,1023.82,0.01,0,0,0,0.02697
2022/04/23 02:20:00.000,n,145,3.96,3.6,4.32,18.3,84.3,1023.82,0.01,0,0,0,0.026093
2022/04/23 02:21:00.000,n,158,3.24,1.8,3.6,18.3,84.5,1023.82,0.01,0,0,0,0.026093
2022/04/23 02:22:00.005,n,162,5.04,3.6,5.4,18.3,84.4,1023.82,0.01,0,0,0,0.027809
2022/04/23 02:23:00.010,n,176,5.4,4.68,6.12,18.3,84.5,1023.82,0.01,0,0,0,0.02697
2022/04/23 02:24:00.015,n,171,8.64,7.56,10.08,18.3,84.5,1023.82,0.01,0,0,0,0.028687
2022/04/23 02:25:00.000,n,179,5.4,4.68,6.48,18.3,84.5,1023.82,0.01,0,0,0,0.026093
2022/04/23 02:26:00.000,n,146,6.48,6.12,6.48,18.3,84.5,1023.82,0.01,0,0,0,0.026093
2022/04/23 02:27:00.000,n,188,4.32,2.16,7.2,18.3,84.5,1023.82,0.01,0,0,0,0.028687
2022/04/23 02:28:00.004,n,205,6.84,5.76,7.92,18.3,84.4,1023.82,0.01,0,0,0,0.026093
2022/04/23 02:29:00.009,n,130,3.96,1.44,5.4,18.3,84.6,1023.82,0.01,0,0,0,0.022583
2022/04/23 02:30:00.000,n,138,1.44,0.72,2.88,18.3,84.6,1023.82,0.01,0,0,0,0.025215
2022/04/23 02:31:00.002,n,141,9.72,8.28,10.8,18.3,84.3,1023.92,0.01,0,0,0,0.025215
2022/04/23 02:32:00.008,n,138,7.92,3.96,10.08,18.2,84.3,1023.92,0.01,0,0,0,0.026093
2022/04/23 02:33:00.014,n,168,7.2,7.2,7.56,18.2,84.2,1023.92,0.01,0,0,0,0.02697
2022/04/23 02:34:00.000,n,190,4.32,3.6,5.04,18.2,84.5,1023.92,0.01,0,0,0,0.024376
2022/04/23 02:35:00.000,n,148,7.92,6.84,9,18.2,84.3,1023.92,0.01,0,0,0,0.02697
2022/04/23 02:36:00.000,n,130,3.24,1.8,5.04,18.2,84.4,1023.92,0.01,0,0,0,0.033951
2022/04/23 02:37:00.003,n,144,5.76,4.68,6.84,18.2,84.3,1023.92,0.01,0,0,0,0.028725
2022/04/23 02:38:00.007,n,186,6.84,4.68,9,18.2,84.3,1023.92,0.01,0,0,0,0.029564
2022/04/23 02:39:00.000,n,149,1.44,0.72,2.16,18.3,84.5,1023.92,0.01,0,0,0,0.029564
2022/04/23 02:40:00.002,n,148,1.8,1.08,1.8,18.3,84.5,1023.82,0.01,0,0,0,0.028725
2022/04/23 02:41:00.007,n,169,4.32,3.6,6.12,18.3,84.2,1023.82,0.01,0,0,0,0.027847
2022/04/23 02:42:00.012,n,138,3.6,1.44,4.68,18.3,84.3,1023.82,0.01,0,0,0,0.031357
2022/04/23 02:43:00.000,n,194,5.4,5.04,6.12,18.3,84.2,1023.82,0.01,0,0,0,0.030479
2022/04/23 02:44:00.000,n,197,8.28,7.92,8.64,18.2,84.1,1023.82,0.01,0,0,0,0.030479
2022/04/23 02:45:00.000,n,237,4.32,3.24,5.4,18.2,84.3,1023.82,0.01,0,0,0,0.029564
2022/04/23 02:46:00.000,n,192,1.8,0.72,2.88,18.3,84.6,1023.82,0.01,0,0,0,0.029564
2022/04/23 02:47:00.005,n,337,1.08,0.36,1.8,18.3,84.6,1023.82,0.01,0,0,0,0.029564
2022/04/23 02:48:00.011,n,196,1.08,0.72,1.8,18.3,84.5,1023.82,0.01,0,0,0,0.032196
2022/04/23 02:49:00.000,n,139,0.72,0.36,1.08,18.3,84.5,1023.82,0.01,0,0,0,0.030479
2022/04/23 02:50:00.004,n,219,2.88,1.8,3.6,18.4,84.6,1023.82,0.01,0,0,0,0.033951
2022/04/23 02:51:00.010,n,232,5.4,4.68,5.76,18.4,84.3,1023.82,0.01,0,0,0,0.0383
2022/04/23 02:52:00.000,n,179,2.16,1.8,2.16,18.3,84.2,1023.82,0.01,0,0,0,0.033073
2022/04/23 02:53:00.000,n,339,2.88,1.44,4.32,18.3,84.7,1023.82,0.01,0,0,0,0.031357
2022/04/23 02:54:00.000,n,206,8.64,7.56,9.36,18.4,84.7,1023.92,0.01,0,0,0,0.033073
2022/04/23 02:55:00.000,n,215,6.12,5.04,7.56,18.4,84.1,1023.92,0.01,0,0,0,0.031357
2022/04/23 02:56:00.004,n,195,5.4,4.68,6.48,18.3,84.1,1023.92,0.01,0,0,0,0.033951
2022/04/23 02:57:00.010,n,188,9,7.56,10.08,18.3,84.1,1023.92,0.01,0,0,0,0.031357
2022/04/23 02:58:00.000,n,160,2.88,2.52,3.24,18.3,84.2,1023.92,0.01,0,0,0,0.035706
2022/04/23 02:59:00.004,n,216,3.6,2.88,3.96,18.3,84.4,1023.92,0.01,0,0,0,0.033951
2022/04/23 03:00:00.009,n,217,3.6,2.88,4.32,18.3,84.3,1023.92,0.01,0,0,0,0.030479
2022/04/23 03:01:00.000,n,186,8.64,6.12,10.440002,18.3,84.3,1023.92,0.01,0,0,0,0.029564
2022/04/23 03:02:00.004,n,114,4.68,2.88,6.12,18.3,84.2,1023.92,0.04,1.5,0,0,0.032196
2022/04/23 03:03:00.000,n,182,7.92,6.12,13.68,18.3,84.2,1023.92,0.05,0.7,0,0,0.031357
2022/04/23 03:04:00.000,n,175,15.48,9.72,18.359998,18.3,84.3,1023.92,0.12,2.1,0,0,0.035706
2022/04/23 03:05:00.000,n,190,8.28,7.56,9,18.3,84.4,1023.92,0.19,5.9,0,0,0.032196
2022/04/23 03:06:00.000,n,202,7.56,6.84,7.92,18.3,84.4,1023.82,0.21,1.5,0,0,0.035706
2022/04/23 03:07:00.010,n,84,0.72,0,1.08,18.3,84.7,1023.82,0.22,0.4,0,0,0.033951
2022/04/23 03:08:00.007,n,163,7.56,6.48,7.92,18.3,84.8,1023.82,0.3,3.1,0,0,0.03479
2022/04/23 03:09:00.005,n,224,6.48,5.4,6.84,18.3,84.6,1023.82,0.33,3.9,0,0,0.03479
2022/04/23 03:10:00.000,n,230,2.88,2.52,3.24,18.3,84.7,1023.82,0.33,0.1,0,0,0.03479
2022/04/23 03:11:00.001,n,245,3.24,3.24,3.6,18.3,84.9,1023.82,0.34,0,0,0,0.03479
2022/04/23 03:12:00.000,n,217,2.52,1.08,3.24,18.3,85.1,1023.82,0.34,0,0,0,0.03479
2022/04/23 03:13:00.000,n,239,1.44,0.36,1.8,18.3,85.2,1023.82,0.34,0,0,0,0.03479
2022/04/23 03:14:00.009,n,218,2.88,2.52,3.24,18.4,85.3,1023.82,0.34,0,0,0,0.036545
2022/04/23 03:15:00.005,n,235,1.44,0.72,2.16,18.4,85.4,1023.82,0.34,0,0,0,0.037422
2022/04/23 03:16:00.003,n,272,2.52,2.16,3.24,18.4,85.4,1023.82,0.34,0,0,0,0.033951
2022/04/23 03:17:00.000,n,186,0.72,0.36,1.08,18.5,85.4,1023.72,0.34,0,0,0,0.033073
2022/04/23 03:18:00.015,n,265,3.24,2.16,3.96,18.5,85.7,1023.82,0.34,0,0,0,0.033951
2022/04/23 03:19:00.000,n,206,5.76,4.32,8.28,18.5,85,1023.82,0.34,0,0,0,0.033073
2022/04/23 03:20:00.000,n,199,8.28,7.56,9,18.4,84.7,1023.72,0.34,0,0,0,0.036545
2022/04/23 03:21:00.005,n,163,3.96,3.24,4.32,18.4,84.8,1023.82,0.34,0,0,0,0.032196
2022/04/23 03:22:00.002,n,211,0.72,0.36,1.44,18.3,85,1023.82,0.34,0,0,0,0.035706
2022/04/23 03:23:00.000,n,196,4.32,3.6,5.04,18.3,85,1023.72,0.34,0,0,0,0.037422
2022/04/23 03:24:00.000,n,275,4.68,3.96,5.04,18.3,85.2,1023.72,0.34,0,0,0,0.033073
2022/04/23 03:25:00.010,n,311,2.52,1.8,3.6,18.3,85,1023.72,0.34,0,0,0,0.03479
2022/04/23 03:26:00.006,n,269,1.08,0.36,1.8,18.3,84.9,1023.72,0.34,0,0,0,0.0383
2022/04/23 03:27:00.004,n,294,1.8,1.08,2.16,18.3,85,1023.72,0.34,0,0,0,0.037422
2022/04/23 03:28:00.001,n,170,2.52,1.44,3.24,18.3,85.1,1023.72,0.34,0,0,0,0.03479
2022/04/23 03:29:00.000,n,158,2.52,1.8,3.6,18.2,85,1023.72,0.34,0,0,0,0.03479
2022/04/23 03:30:00.000,n,310,3.96,2.52,6.12,18.2,85.3,1023.72,0.34,0,0,0,0.035706
2022/04/23 03:31:00.000,n,307,1.08,0.72,1.8,18.3,85.3,1023.72,0.34,0,0,0,0.0383
2022/04/23 03:32:00.008,n,237,5.04,4.32,5.76,18.3,85.4,1023.72,0.34,0,0,0,0.036545
2022/04/23 03:33:00.004,n,219,1.44,0.72,1.8,18.3,85.3,1023.72,0.34,0,0,0,0.037422
2022/04/23 03:34:00.001,n,256,5.04,4.68,5.4,18.3,85.2,1023.72,0.34,0,0,0,0.036545
2022/04/23 03:35:00.000,n,242,1.08,0.72,2.88,18.3,85.1,1023.82,0.34,0,0,0,0.039139
2022/04/23 03:36:00.012,n,226,3.24,2.88,3.6,18.2,85,1023.82,0.34,0,0,0,0.036545
2022/04/23 03:37:00.000,n,168,2.52,1.8,2.88,18.2,85.1,1023.82,0.34,0,0,0,0.033073
2022/04/23 03:38:00.000,n,229,1.44,0.72,2.16,18.2,85,1023.82,0.34,0,0,0,0.036545
2022/04/23 03:39:00.002,n,313,0.72,0.36,1.08,18.2,85.4,1023.82,0.34,0,0,0,0.035706
2022/04/23 03:40:00.000,n,273,1.8,1.44,2.88,18.2,85.3,1023.82,0.34,0,0,0,0.036545
2022/04/23 03:41:00.000,n,155,1.08,0.36,1.44,18.2,85.1,1023.82,0.34,0,0,0,0.036545
2022/04/23 03:42:00.010,n,230,3.24,2.88,3.6,18.2,85.2,1023.82,0.34,0,0,0,0.03479
2022/04/23 03:43:00.006,n,204,2.16,1.44,2.52,18.2,85.1,1023.92,0.34,0,0,0,0.035706
2022/04/23 03:44:00.004,n,256,1.44,0.72,1.8,18.2,85.1,1023.92,0.34,0,0,0,0.037422
2022/04/23 03:45:00.001,n,167,1.8,1.44,2.16,18.1,85.1,1023.92,0.34,0,0,0,0.036545
2022/04/23 03:46:00.000,n,250,1.44,1.08,1.8,18.2,85.2,1023.92,0.34,0,0,0,0.035706
2022/04/23 03:47:00.000,n,266,2.52,2.16,2.88,18.1,85.1,1023.92,0.34,0,0,0,0.035706
2022/04/23 03:48:00.000,n,241,2.16,1.8,2.16,18.1,85,1023.92,0.34,0,0,0,0.03479
2022/04/23 03:49:00.000,n,236,3.24,2.52,3.96,18.1,85.1,1023.92,0.34,0,0,0,0.040054
2022/04/23 03:50:00.005,n,205,1.08,0.72,1.08,18.1,85.1,1023.92,0.34,0,0,0,0.0383
2022/04/23 03:51:00.002,n,227,3.24,2.52,3.6,18.1,85.2,1023.82,0.34,0,0,0,0.037422
2022/04/23 03:52:00.000,n,248,3.24,1.8,4.32,18.2,85.3,1023.82,0.34,0,0,0,0.037422
2022/04/23 03:53:00.013,n,199,2.52,2.52,3.24,18.2,85.2,1023.82,0.34,0,0,0,0.0383
2022/04/23 03:54:00.010,n,290,1.44,1.08,1.8,18.2,85.1,1023.82,0.34,0,0,0,0.0383
2022/04/23 03:55:00.000,n,290,1.44,1.08,1.8,18.2,85.1,1023.82,0.34,0,0,0,0.037422
2022/04/23 03:56:00.000,n,27,0.72,0.72,1.08,18.2,85.2,1023.92,0.34,0,0,0,0.040932
2022/04/23 03:57:00.001,n,263,2.52,2.16,3.24,18.2,85.5,1023.82,0.34,0,0,0,0.039139
2022/04/23 03:58:00.000,n,271,4.32,3.96,5.4,18.2,85.2,1023.82,0.34,0,0,0,0.037422
2022/04/23 03:59:00.000,n,253,5.4,5.4,5.76,18.2,85,1023.82,0.34,0,0,0,0.037422
2022/04/23 04:00:00.009,n,255,3.96,3.6,3.96,18.1,84.8,1023.92,0.34,0,0,0,0.037422
2022/04/23 04:01:00.005,n,273,1.8,1.44,2.16,18.1,84.9,1023.92,0.34,0,0,0,0.037422
2022/04/23 04:02:00.003,n,157,1.44,0.72,2.16,18.1,85,1023.82,0.34,0,0,0,0.041771
2022/04/23 04:03:00.017,n,247,1.08,0.72,1.44,18.1,85.2,1023.82,0.34,0,0,0,0.040932
2022/04/23 04:04:00.000,n,239,3.96,3.6,3.96,18.2,85.3,1023.82,0.34,0,0,0,0.0383
2022/04/23 04:05:00.000,n,252,2.52,2.52,2.52,18.2,85.3,1023.82,0.34,0,0,0,0.039139
2022/04/23 04:06:00.000,n,263,3.24,2.52,3.96,18.2,85.2,1023.82,0.34,0,0,0,0.041771
2022/04/23 04:07:00.006,n,158,7.2,6.12,8.28,18.2,84.9,1023.82,0.34,0,0,0,0.041771
2022/04/23 04:08:00.003,n,180,3.96,3.6,4.32,18.1,84.9,1023.82,0.34,0,0,0,0.041771
2022/04/23 04:09:00.000,n,149,2.88,1.8,3.96,18.1,84.9,1023.82,0.34,0,0,0,0.042648
2022/04/23 04:10:00.000,n,181,2.88,2.16,3.24,18.1,84.7,1023.82,0.34,0,0,0,0.043526
2022/04/23 04:11:00.011,n,180,4.32,3.6,5.04,18,84.8,1023.82,0.34,0,0,0,0.040932
2022/04/23 04:12:00.008,n,198,5.76,5.4,6.48,18,84.8,1023.82,0.34,0,0,0,0.041771
2022/04/23 04:13:00.000,n,207,2.16,1.8,2.52,18,84.6,1023.82,0.34,0,0,0,0.037422
2022/04/23 04:14:00.002,n,164,2.16,1.8,2.52,18,84.7,1023.82,0.34,0,0,0,0.037422
2022/04/23 04:15:00.000,n,164,4.32,2.88,5.76,18,84.8,1023.82,0.34,0,0,0,0.040054
2022/04/23 04:16:00.000,n,199,2.88,2.16,3.6,18,84.9,1023.82,0.34,0,0,0,0.0383
2022/04/23 04:17:00.009,n,169,4.32,3.96,5.04,18,84.9,1023.82,0.34,0,0,0,0.041771
2022/04/23 04:18:00.006,n,165,2.16,0.72,3.96,18,84.6,1023.82,0.34,0,0,0,0.040932
2022/04/23 04:19:00.003,n,173,2.52,2.16,2.88,18,84.7,1023.82,0.34,0,0,0,0.039139
2022/04/23 04:20:00.000,n,238,3.6,2.88,4.32,18,84.7,1023.92,0.34,0,0,0,0.040932
2022/04/23 04:21:00.014,n,289,1.8,1.44,2.52,18,84.7,1023.82,0.34,0,0,0,0.036545
2022/04/23 04:22:00.000,n,138,2.52,2.16,2.52,18,84.8,1023.82,0.34,0,0,0,0.043526
2022/04/23 04:23:00.000,n,277,2.88,2.52,2.88,18,84.9,1023.82,0.34,0,0,0,0.042648
2022/04/23 04:24:00.005,n,298,2.16,1.44,2.52,18,84.8,1023.82,0.34,0,0,0,0.040054
2022/04/23 04:25:00.002,n,289,0.72,0.36,1.08,18,85,1023.82,0.34,0,0,0,0.040054
2022/04/23 04:26:00.000,n,220,3.6,2.88,4.32,18,84.8,1023.82,0.34,0,0,0,0.039139
2022/04/23 04:27:00.000,n,142,1.08,0.36,1.8,18,84.5,1023.82,0.34,0,0,0,0.043526
2022/04/23 04:28:00.009,n,171,3.96,3.6,4.32,18,84.5,1023.82,0.34,0,0,0,0.0383
2022/04/23 04:29:00.006,n,176,1.44,1.08,1.8,18,84.6,1023.82,0.34,0,0,0,0.0383
2022/04/23 04:30:00.003,n,197,0.72,0.36,1.44,17.9,84.5,1023.82,0.34,0,0,0,0.0383
2022/04/23 04:31:00.000,n,208,2.16,1.44,3.6,17.9,84.7,1023.82,0.34,0,0,0,0.039139
2022/04/23 04:32:00.000,n,151,6.48,3.96,12.6,17.9,84.4,1023.82,0.34,0,0,0,0.040054
2022/04/23 04:33:00.000,n,198,6.12,5.4,6.12,17.9,84.4,1023.82,0.34,0,0,0,0.040054
2022/04/23 04:34:00.000,n,212,3.24,2.88,3.24,17.9,84.4,1023.92,0.34,0,0,0,0.037422
2022/04/23 04:35:00.007,n,191,7.2,5.4,10.08,17.8,84.4,1023.92,0.34,0,0,0,0.040932
2022/04/23 04:36:00.004,n,183,6.12,5.4,6.48,17.8,84.3,1023.82,0.34,0,0,0,0.0383
2022/04/23 04:37:00.001,n,173,2.88,1.8,3.6,17.8,84.4,1023.92,0.34,0,0,0,0.035706
2022/04/23 04:38:00.015,n,204,1.08,0.36,2.16,17.8,84.4,1023.92,0.34,0,0,0,0.039139
2022/04/23 04:39:00.011,n,178,8.64,6.84,9.72,17.8,84.4,1023.92,0.34,0,0,0,0.035706
2022/04/23 04:40:00.000,n,189,3.96,2.16,5.4,17.8,84.3,1023.92,0.34,0,0,0,0.0383
2022/04/23 04:41:00.000,n,163,6.84,4.32,12.24,17.8,84.3,1023.92,0.34,0,0,0,0.036545
2022/04/23 04:42:00.003,n,223,2.88,1.8,3.96,17.8,84.4,1023.92,0.34,0,0,0,0.039139
2022/04/23 04:43:00.000,n,121,2.16,0.36,3.96,17.8,84.4,1023.92,0.34,0,0,0,0.035706
2022/04/23 04:44:00.000,n,147,2.88,1.8,3.96,17.8,84.4,1023.92,0.34,0,0,0,0.035706
2022/04/23 04:45:00.000,n,172,7.2,6.48,7.92,17.8,84.4,1023.92,0.34,0,0,0,0.037422
2022/04/23 04:46:00.010,n,241,3.24,2.16,4.32,17.8,84.5,1023.92,0.34,0,0,0,0.036545
2022/04/23 04:47:00.008,n,144,5.04,2.16,11.16,17.8,84.8,1023.92,0.34,0,0,0,0.037422
2022/04/23 04:48:00.004,n,190,2.88,2.52,3.24,17.8,84.5,1023.92,0.34,0,0,0,0.03479
2022/04/23 04:49:00.001,n,297,1.44,0.72,2.16,17.8,84.6,1024.02,0.34,0,0,0,0.033073